Weather in Poselok sovkhoza im. Vorovskogo

Russia / Republic of Tatarstan     55°41′57″N   53°09′38″E
temp.,
°C
wind,
m/s
gust,
m/s
humid.,
%
clouds,
%
prec.,
mm/h
press.,
hPa
HPBL,
m
13 may, thu
thu1300:00+16sse22550 0.0 102611
03:00+15s11560 0.0 102711
06:00+18se22490 0.0 1027124
09:00+24sse45355 0.0 1027723
12:00+26sse573130 0.0 10261858
15:00+27s56290 0.0 10252030
18:00+24sse33470 0.0 102438
21:00+19sse33565 0.0 102533
14 may, fri
fri1400:00+17sse33521 0.0 102429
03:00+16sse34545 0.0 102539
06:00+19sse395750 0.0 1024232
09:00+25s69405 0.0 1024664
12:00+28ssw79305 0.0 10231410
15:00+29sw683169 0.0 10231768
18:00+24ssw3449100 0.0 102267
21:00+20ssw345479 0.0 102241
15 may, sat
sat1500:00+17ssw336684 0.4 102239
03:00+16ssw3365100 0.5 102331
06:00+19ssw385519 0.0 1023227
09:00+25ssw573671 0.0 1022649
12:00+29sw67277 0.0 10221373
15:00+29sw5730100 0.0 10211728
18:00+24sw334852 0.0 102033
21:00+20ssw33529 0.0 102021
16 may, sun
sun1600:00+18ssw33535 0.0 102023
03:00+17ssw33548 0.0 102124
06:00+20ssw36530 0.0 1021170
09:00+26ssw57395 0.0 1020588
12:00+30sw68281 0.0 10192846
15:00+29sw67295 0.0 10183044
18:00+26sw334420 0.0 101744
21:00+21ssw335196 0.0 101734
17 may, mon
mon1700:00+19ssw355728 0.0 101760
03:00+18wsw3358100 0.0 101826
06:00+21sw255697 0.0 1018164
09:00+26sw45422 0.0 1018710
12:00+29wsw57344 0.0 10171683
15:00+29w68318 0.0 10173303
18:00+26wnw36494 0.0 1017112
21:00+20nw226481 0.2 101814